Newport Airport, OR

8:05 PM PDT on July 22, 2017 (GMT -0700)
Newport Municipal

Weather History for KONP - February, 2012

Change the Weather History Date:

Saturday, February 18, 2012

  Actual Average Record
Temperature  
Mean Temperature 42 °F -  
Max Temperature 46 °F 51 °F 62 °F (2005)
Min Temperature 37 °F 40 °F 28 °F (2006)
Degree Days  
Heating Degree Days 24    
Moisture  
Dew Point 37 °F    
Average Humidity 76    
Maximum Humidity 93    
Minimum Humidity 66    
Precipitation  
Precipitation 0.04 in - - ()
Sea Level Pressure  
Sea Level Pressure 30.25 in    
Wind  
Wind Speed 13 mph (West)    
Max Wind Speed 18 mph    
Max Gust Speed 30 mph    
Visibility 6 miles    
Events Rain    
Averages and records for this station are not official NWS values.
T = Trace of Precipitation, MM = Missing Value Source: NWS Daily Summary

Daily Weather History Graph

Daily Weather History Graph

Search for Another Location

Airport or City:

Trip Planner

Search our weather history database for the weather conditions in past years. The results will help you decide how hot, cold, wet, or windy it might be!

Date:

Astronomy

Feb. 18, 2012 Rise Set
Actual Time 7:12 AM PST 5:48 PM PST
Civil Twilight 6:42 AM PST 6:18 PM PST
Nautical Twilight 6:08 AM PST 6:52 PM PST
Astronomical Twilight 5:34 AM PST 7:26 PM PST
Moon 5:02 AM PST (2/18) 2:46 PM PST (2/18)
Length of Visible Light 11h 35m
Length of Day
10h 36m
Waning Crescent, 10% of the Moon is Illuminated
Feb 18
Waning Crescent
Feb 21
New
Feb 29
First Quarter
Mar 8
Full
Mar 14
Last Quarter

Hourly Weather History & Observations

Time (PST) Temp. Windchill Dew Point Humidity Pressure Visibility Wind Dir Wind Speed Gust Speed Precip Events Conditions
12:15 AM 44.6 °F 38.4 °F 37.4 °F 76% 30.21 in 7.0 mi WSW 12.7 mph 21.9 mph N/A   Mostly Cloudy
12:35 AM 44.6 °F 38.4 °F 37.4 °F 76% 30.21 in 7.0 mi SW 12.7 mph 21.9 mph N/A   Mostly Cloudy
12:55 AM 44.6 °F 37.8 °F 39.2 °F 81% 30.21 in 7.0 mi WSW 15.0 mph 19.6 mph N/A   Mostly Cloudy
1:15 AM 44.6 °F 37.8 °F 37.4 °F 76% 30.21 in 7.0 mi SW 15.0 mph 19.6 mph N/A   Mostly Cloudy
1:35 AM 44.6 °F 38.4 °F 37.4 °F 76% 30.21 in 7.0 mi SW 12.7 mph 19.6 mph N/A   Overcast
1:55 AM 44.6 °F 37.8 °F 39.2 °F 81% 30.21 in 7.0 mi SW 15.0 mph 24.2 mph N/A   Overcast
2:15 AM 44.6 °F 38.8 °F 39.2 °F 81% 30.22 in 7.0 mi WSW 11.5 mph 18.4 mph N/A   Scattered Clouds
2:35 AM 44.6 °F 37.4 °F 37.4 °F 76% 30.22 in 7.0 mi WSW 16.1 mph 23.0 mph N/A   Scattered Clouds
2:55 AM 44.6 °F 37.8 °F 37.4 °F 76% 30.21 in 7.0 mi WSW 15.0 mph 23.0 mph N/A   Scattered Clouds
3:15 AM 44.6 °F 38.1 °F 37.4 °F 76% 30.22 in 7.0 mi WSW 13.8 mph 21.9 mph N/A   Mostly Cloudy
3:35 AM 44.6 °F 36.9 °F 37.4 °F 76% 30.22 in 7.0 mi West 18.4 mph 25.3 mph N/A   Mostly Cloudy
3:55 AM 44.6 °F 37.4 °F 37.4 °F 76% 30.22 in 7.0 mi West 16.1 mph 23.0 mph N/A   Scattered Clouds
4:15 AM 44.6 °F 38.1 °F 37.4 °F 76% 30.23 in 7.0 mi West 13.8 mph 26.5 mph N/A   Scattered Clouds
4:35 AM 44.6 °F 36.9 °F 37.4 °F 76% 30.23 in 7.0 mi West 18.4 mph 24.2 mph N/A   Scattered Clouds
4:55 AM 44.6 °F 37.8 °F 37.4 °F 76% 30.23 in 7.0 mi West 15.0 mph 21.9 mph N/A   Mostly Cloudy
5:15 AM 44.6 °F 37.4 °F 37.4 °F 76% 30.23 in 7.0 mi West 16.1 mph 23.0 mph N/A   Mostly Cloudy
5:35 AM 44.6 °F 37.4 °F 37.4 °F 76% 30.23 in 7.0 mi WSW 16.1 mph 20.7 mph N/A   Overcast
5:55 AM 44.6 °F 37.2 °F 37.4 °F 76% 30.24 in 7.0 mi West 17.3 mph 24.2 mph N/A   Overcast
6:15 AM 44.6 °F 38.1 °F 35.6 °F 71% 30.24 in 7.0 mi West 13.8 mph 20.7 mph N/A   Overcast
6:35 AM 44.6 °F 38.1 °F 35.6 °F 71% 30.24 in 7.0 mi West 13.8 mph 18.4 mph N/A   Mostly Cloudy
6:55 AM 44.6 °F 37.8 °F 37.4 °F 76% 30.24 in 7.0 mi WNW 15.0 mph 29.9 mph N/A Rain Light Rain
7:15 AM 42.8 °F 35.8 °F 37.4 °F 81% 30.24 in 5.0 mi West 13.8 mph 19.6 mph N/A   Haze
7:35 AM 42.8 °F 35.8 °F 35.6 °F 76% 30.24 in 5.0 mi WSW 13.8 mph 24.2 mph N/A Rain Rain
7:55 AM 42.8 °F 37.5 °F 35.6 °F 76% 30.24 in 5.0 mi WSW 9.2 mph - N/A   Haze
8:15 AM 44.6 °F 38.4 °F 37.4 °F 76% 30.24 in 5.0 mi WSW 12.7 mph 19.6 mph N/A   Haze
8:35 AM 44.6 °F 38.4 °F 37.4 °F 76% 30.25 in 4.0 mi West 12.7 mph - N/A   Haze
8:55 AM 44.6 °F 38.8 °F 35.6 °F 71% 30.26 in 5.0 mi West 11.5 mph 17.3 mph N/A   Haze
9:15 AM 44.6 °F 38.4 °F 37.4 °F 76% 30.27 in 5.0 mi West 12.7 mph 18.4 mph N/A   Haze
9:35 AM 44.6 °F 38.4 °F 37.4 °F 76% 30.27 in 5.0 mi West 12.7 mph 19.6 mph N/A   Haze
9:55 AM 46.4 °F 40.4 °F 37.4 °F 71% 30.27 in 5.0 mi WSW 13.8 mph 17.3 mph N/A   Haze
10:15 AM 44.6 °F 37.8 °F 37.4 °F 76% 30.27 in 5.0 mi West 15.0 mph 23.0 mph N/A   Haze
10:35 AM 46.4 °F 40.7 °F 37.4 °F 71% 30.27 in 4.0 mi WNW 12.7 mph 16.1 mph N/A   Haze
10:55 AM 42.8 °F 36.6 °F 37.4 °F 81% 30.28 in 5.0 mi West 11.5 mph 20.7 mph N/A   Haze
11:15 AM 44.6 °F 38.8 °F 37.4 °F 76% 30.28 in 4.0 mi West 11.5 mph 19.6 mph N/A   Haze
11:35 AM 46.4 °F 40.4 °F 37.4 °F 71% 30.28 in 5.0 mi West 13.8 mph 18.4 mph N/A   Haze
11:55 AM 46.4 °F 40.4 °F 37.4 °F 71% 30.29 in 5.0 mi West 13.8 mph 25.3 mph N/A   Haze
12:15 PM 46.4 °F 40.1 °F 37.4 °F 71% 30.28 in 5.0 mi West 15.0 mph 20.7 mph N/A   Haze
12:35 PM 46.4 °F 39.8 °F 37.4 °F 71% 30.28 in 5.0 mi WNW 16.1 mph 23.0 mph N/A   Haze
1:15 PM 46.4 °F 39.8 °F 37.4 °F 71% 30.27 in 5.0 mi West 16.1 mph 23.0 mph N/A   Haze
1:35 PM 46.4 °F 40.4 °F 35.6 °F 66% 30.27 in 5.0 mi West 13.8 mph 19.6 mph N/A   Haze
1:55 PM 46.4 °F 41.1 °F 37.4 °F 71% 30.27 in 5.0 mi West 11.5 mph 19.6 mph N/A   Haze
2:15 PM 44.6 °F 37.8 °F 35.6 °F 71% 30.27 in 5.0 mi West 15.0 mph 23.0 mph N/A   Haze
2:35 PM 46.4 °F 41.1 °F 37.4 °F 71% 30.27 in 5.0 mi West 11.5 mph 18.4 mph N/A   Haze
2:55 PM 46.4 °F 40.7 °F 37.4 °F 71% 30.27 in 5.0 mi West 12.7 mph 16.1 mph N/A   Haze
3:15 PM 46.4 °F 40.1 °F 35.6 °F 66% 30.28 in 5.0 mi West 15.0 mph 19.6 mph N/A   Haze
3:35 PM 44.6 °F 40.2 °F 35.6 °F 71% 30.28 in 5.0 mi West 8.1 mph 17.3 mph N/A   Haze
3:55 PM 46.4 °F 41.9 °F 37.4 °F 71% 30.28 in 5.0 mi West 9.2 mph - N/A   Haze
4:15 PM 44.6 °F 38.4 °F 35.6 °F 71% 30.27 in 5.0 mi West 12.7 mph 18.4 mph N/A   Haze
4:55 PM 42.8 °F 37.5 °F 35.6 °F 76% 30.28 in 4.0 mi West 9.2 mph - N/A Rain Light Rain
5:15 PM 44.6 °F 39.2 °F 37.4 °F 76% 30.27 in 5.0 mi West 10.4 mph - N/A   Haze
5:35 PM 44.6 °F 38.8 °F 37.4 °F 76% 30.27 in 5.0 mi West 11.5 mph 18.4 mph N/A   Haze
5:55 PM 44.6 °F 39.2 °F 35.6 °F 71% 30.27 in 5.0 mi WNW 10.4 mph 17.3 mph N/A   Haze
6:15 PM 42.8 °F 37.5 °F 37.4 °F 81% 30.27 in 7.0 mi NW 9.2 mph - N/A   Overcast
6:35 PM 42.8 °F 37.5 °F 37.4 °F 81% 30.27 in 5.0 mi NW 9.2 mph - N/A   Haze
6:55 PM 42.8 °F 38.6 °F 37.4 °F 81% 30.27 in 5.0 mi WNW 6.9 mph - N/A   Haze
7:15 PM 42.8 °F 39.3 °F 35.6 °F 76% 30.27 in 7.0 mi WNW 5.8 mph - N/A   Scattered Clouds
7:35 PM 39.2 °F 35.9 °F 33.8 °F 81% 30.28 in 3.0 mi West 4.6 mph 24.2 mph 0.03 in Rain Rain
7:55 PM 41.0 °F - 35.6 °F 81% 30.27 in 10.0 mi Calm Calm - 0.04 in   Overcast
8:15 PM 37.4 °F 34.9 °F 35.6 °F 93% 30.27 in 10.0 mi NNE 3.5 mph - N/A   Overcast
8:35 PM 37.4 °F - 35.6 °F 93% 30.26 in 7.0 mi Calm Calm - N/A   Mostly Cloudy
8:55 PM 37.4 °F - 35.6 °F 93% 30.26 in 10.0 mi Calm Calm - N/A   Mostly Cloudy
9:15 PM 37.4 °F - 35.6 °F 93% 30.27 in 7.0 mi Calm Calm - N/A   Scattered Clouds
9:35 PM 41.0 °F 34.3 °F 35.6 °F 81% 30.27 in 7.0 mi West 11.5 mph 18.4 mph N/A   Mostly Cloudy
9:55 PM 41.0 °F 38.0 °F 33.8 °F 76% 30.26 in 7.0 mi WNW 4.6 mph - N/A   Overcast
10:15 PM 42.8 °F 40.1 °F 33.8 °F 70% 30.26 in 7.0 mi West 4.6 mph - N/A   Overcast
10:35 PM 37.4 °F - 33.8 °F 87% 30.26 in 7.0 mi Calm Calm - N/A   Overcast
10:55 PM 37.4 °F - 33.8 °F 87% 30.26 in 7.0 mi Calm Calm - N/A   Mostly Cloudy
11:35 PM 35.6 °F 32.8 °F 33.8 °F 93% 30.25 in 7.0 mi SSE 3.5 mph - N/A   Mostly Cloudy
11:55 PM 37.4 °F 33.8 °F 33.8 °F 87% 30.24 in 7.0 mi SSE 4.6 mph - N/A   Mostly Cloudy